Marganell (Bages)





Hora UTC 03:55
Temperatura 12.4 ºC
Humitat 93.0 %
Pressió 1012.1 hPa
Pluja 0.0 mm
Velocitat vent 0.0 km/h
Direcció vent NW

Dades diàries 2024-05-30



Hora UTC (hivern +1h; estiu +2h)
Temperatura (ºC) Humitat (%) Pressió (hPa) Velocitat vent (km/h) Precipitació (mm)
Hora UTC Aire Humitat Pressió Vel. Dir. Vel. Max Dir. Intent. màx 5 min.
00:05 14.6 87.0 1013.9 0.0 WNW 0.0 0.0
00:10 14.4 87.0 1013.9 0.0 WNW 0.0 0.0
00:10 14.4 87.0 1013.8 0.0 NW 0.0 0.0
00:20 14.3 87.0 1013.7 0.0 WNW 0.0 0.0
00:25 14.3 87.0 1013.5 0.0 NW 0.0 0.0
00:30 14.2 87.0 1013.6 0.0 W 0.0 0.0
00:35 14.1 87.0 1013.4 0.0 NW 0.0 0.0
00:40 14.1 87.0 1013.5 0.0 WNW 0.0 0.0
00:45 14.1 87.0 1013.3 0.0 WNW 0.0 0.0
00:50 14.0 87.0 1013.4 0.0 WNW 0.0 0.0
00:55 13.9 87.0 1013.4 0.0 WNW 0.0 0.0
01:00 13.8 87.0 1013.3 0.0 WNW 0.0 0.0
01:05 13.8 87.0 1013.3 0.0 WNW 0.0 0.0
01:10 13.7 87.0 1013.4 0.0 NW 0.0 0.0
01:10 13.7 88.0 1013.4 0.0 NW 0.0 0.0
01:20 13.4 88.0 1013.3 0.0 NW 0.0 0.0
01:25 13.3 88.0 1013.3 0.0 NW 0.0 0.0
01:30 13.2 89.0 1013.3 0.0 NW 0.0 0.0
01:35 13.2 89.0 1013.3 0.0 NW 0.0 0.0
01:40 13.2 89.0 1013.2 0.0 NW 0.0 0.0
01:45 13.3 89.0 1013.2 0.0 NW 0.0 0.0
01:50 13.2 89.0 1013.0 0.0 NW 0.0 0.0
01:55 13.2 90.0 1013.0 0.0 NW 0.0 0.0
02:00 13.1 89.0 1012.9 0.0 NW 0.0 0.0
02:05 13.1 90.0 1012.9 0.0 NW 0.0 0.0
02:10 13.0 90.0 1013.0 0.0 WNW 0.0 0.0
02:10 13.0 90.0 1012.9 0.0 WNW 0.0 0.0
02:20 12.9 91.0 1012.9 0.0 WNW 0.0 0.0
02:25 12.9 91.0 1012.9 0.0 WNW 0.0 0.0
02:30 12.9 91.0 1012.9 0.0 WNW 0.0 0.0
02:35 12.9 91.0 1012.9 0.0 WNW 0.0 0.0
02:40 12.8 91.0 1012.7 0.0 WNW 0.0 0.0
02:45 12.8 91.0 1012.8 0.0 WNW 0.0 0.0
02:50 12.7 91.0 1012.7 0.0 NW 0.0 0.0
02:55 12.7 91.0 1012.8 0.0 NW 0.0 0.0
03:00 12.6 92.0 1012.6 0.0 NW 0.0 0.0
03:05 12.6 92.0 1012.6 0.0 NW 0.0 0.0
03:10 12.6 92.0 1012.5 0.0 NW 0.0 0.0
03:10 12.4 92.0 1012.6 0.0 NW 0.0 0.0
03:20 12.4 92.0 1012.6 0.0 NW 0.0 0.0
03:25 12.4 92.0 1012.5 0.0 NW 0.0 0.0
03:30 12.4 92.0 1012.5 0.0 NW 0.0 0.0
03:35 12.4 92.0 1012.3 0.0 WNW 0.0 0.0
03:40 12.3 92.0 1012.2 0.0 NW 0.0 0.0
03:45 12.3 92.0 1012.2 0.0 NW 0.0 0.0
03:50 12.3 93.0 1012.2 0.0 NW 0.0 0.0
03:55 12.4 93.0 1012.1 0.0 NW 0.0 0.0
Màxima 14.6 93.0 1013.9 0.0 NW 0.0 0.0
Mínima 12.3 87.0 1012.1
Total 0.0